This is the latest recevied weather packets stored in our database for station/object APPOWX. If no packets are shown the sender has not sent any weather packets the latest 10 day(s).
| Time | Temp. | Humidity | Pressure | Rain* | Wind** | Luminosity | Snow |
|---|---|---|---|---|---|---|---|
| 1778275602 | 20° C | 36% | 1015.8 hPa | 0 mm | - | - | - |
| 1778275543 | 19.44° C | 35% | 1015.9 hPa | 0 mm | - | - | - |
| 1778275482 | 20° C | 38% | 1016 hPa | 0 mm | - | - | - |
| 1778275422 | 20° C | 39% | 1015.9 hPa | 0 mm | - | - | - |
| 1778275363 | 20° C | 39% | 1015.8 hPa | 0 mm | - | - | - |
| 1778275302 | 19.44° C | 37% | 1015.7 hPa | 0 mm | - | - | - |
| 1778275242 | 19.44° C | 37% | 1015.8 hPa | 0 mm | - | - | - |
| 1778275182 | 20° C | 38% | 1015.8 hPa | 0 mm | - | - | - |
| 1778275122 | 20° C | 37% | 1015.8 hPa | 0 mm | - | - | - |
| 1778275062 | 20° C | 36% | 1015.7 hPa | 0 mm | - | - | - |
| 1778275002 | 20° C | 34% | 1015.8 hPa | 0 mm | - | - | - |
| 1778274943 | 20° C | 40% | 1015.7 hPa | 0 mm | - | - | - |
| 1778274882 | 20° C | 38% | 1015.7 hPa | 0 mm | - | - | - |
| 1778274822 | 20° C | 36% | 1015.7 hPa | 0 mm | - | - | - |
| 1778274762 | 20° C | 37% | 1015.9 hPa | 0 mm | - | - | - |
| 1778274702 | 20° C | 41% | 1015.8 hPa | 0 mm | - | - | - |
| 1778274641 | 20° C | 38% | 1015.8 hPa | 0 mm | - | - | - |
| 1778274582 | 20° C | 38% | 1015.9 hPa | 0 mm | - | - | - |
| 1778274522 | 20° C | 38% | 1015.8 hPa | 0 mm | - | - | - |
| 1778274458 | 20° C | 40% | 1015.9 hPa | 0 mm | - | - | - |
| 1778274394 | 19.44° C | 37% | 1015.9 hPa | 0 mm | - | - | - |
| 1778274329 | 19.44° C | 38% | 1015.7 hPa | 0 mm | - | - | - |
| 1778274266 | 19.44° C | 37% | 1015.9 hPa | 0 mm | - | - | - |
| 1778274205 | 19.44° C | 41% | 1015.9 hPa | 0 mm | - | - | - |
| 1778274146 | 19.44° C | 41% | 1015.9 hPa | 0 mm | - | - | - |
* Rain latest hour (hover to see other rain measurements)
** Current wind speed in m/s (hover to see current wind gust speed)